Location: Bessat
(45.8735°N, 1.9924°E)
Time: 18:43:18
(UTC+00:00)

SJ 16-02 - Pass Details

Date: 11 May 2021
Orbit: 606 x 616 km, 75.0° (Epoch: 21 June)

Event Time Altitude Azimuth Distance (km) Brightness Sun altitude
Exits shadow 21:19:27 25° 189° (S) 1,255 2.5 -17.7°
Maximum altitude 21:21:59 75° 107° (ESE) 643 1.2 -17.9°
Drops below altitude 10° 21:26:25 10° 23° (NNE) 1,988 4.4 -18.4°
Sets 21:28:41 0° 22° (NNE) 2,897 5.3 -18.6°
